Lid_Strength_Index
3 3 2 1 1 -0 -0 -0 -0 -1 -0 1 1 1 2 1 0 -0 -1 -1 -0 -0 -1 0 0 -1 -0 -1 -1 0 2 2 -0 1 1 0 -1 -0 -0 0 1 -0 -1
3 2 2 1 1 0 0 -0 -1 -1 -1 1 1 1 1 1 1 1 0 -0 -0 0 0 -0 -1 -1 -1 -1 -1 -0 1 2 -0 1 1 3 2 0 -0 -1 -0 -1 -1
4 3 2 1 1 0 0 -0 -1 -1 -1 -1 0 0 0 0 1 1 0 -0 -1 -1 -1 -1 -2 -1 -1 -0 -1 -1 0 1 0 -0 1 4 5 2 0 -0 -0 -0 -0
3 3 2 2 1 1 0 -1 -1 -1 -1 -1 -0 -0 1 2 1 1 0 -0 -1 -1 -1 -1 -2 -2 -1 -1 -1 -1 -1 -0 1 0 0 -0 1 3 3 1 0 -0 -0
3 3 2 2 1 1 -0 -0 -1 -1 -1 -1 -1 -0 -0 0 0 0 -1 -1 -2 -1 -2 -2 -2 -2 -1 -1 -1 -1 -1 -0 0 1 0 1 1 0 3 4 1 1 0
3 2 2 1 1 0 -0 -0 -0 -0 -1 -1 -1 -1 -0 -0 0 0 0 1 1 -0 -1 -1 -2 -2 -1 -1 -1 -1 -1 -1 -0 -0 -0 0 1 1 2 3 2 2 0
4 4 2 2 1 1 1 1 -0 -0 -1 -1 -1 -1 -1 -1 -0 0 1 1 1 1 -1 -2 -1 -1 -2 -2 -2 -1 -1 -1 -0 -0 0 -1 -1 0 1 2 2 3 1
4 3 2 2 1 1 1 1 0 0 -0 -0 -1 -1 -1 1 1 0 0 0 -0 -1 -2 -2 -2 -2 -2 -2 -2 -1 -1 -1 -1 -0 -1 -1 -1 -0 -1 1 2 3 2
4 3 2 1 3 2 2 0 0 0 0 -0 0 0 1 -0 -0 -1 -1 -0 -1 -1 -2 -2 -1 -2 -2 -2 -1 -0 -0 -1 -2 -1 -1 -1 0 -1 -1 -0 0 2 5
4 3 2 2 3 1 0 1 1 1 1 1 1 0 1 1 1 1 1 0 -0 -1 -1 -1 -1 -1 -1 -1 -1 -0 0 0 0 -0 0 0 -0 -1 -1 -0 0 0 2
4 3 4 3 1 0 1 1 1 2 1 1 0 1 2 1 1 1 1 1 -0 -1 -0 -0 -0 -0 -0 -1 -1 1 1 1 1 0 -0 -0 -1 -0 -1 -1 -0 0 1
3 3 2 1 1 1 2 2 1 1 1 1 2 2 1 1 2 2 2 2 2 1 0 1 2 2 2 -0 -0 0 0 1 0 -0 -0 -0 -0 -0 -1 -0 -0 0 1
3 2 2 2 2 2 2 2 2 1 1 2 2 2 2 3 3 2 2 2 3 1 1 1 0 1 1 0 -1 -1 -1 -1 0 -0 -0 -0 -0 -0 -0 -0 0 1 3
3 3 3 3 4 3 3 3 2 3 3 2 2 2 3 3 4 2 3 2 2 3 2 1 1 0 0 0 -0 -0 -1 -1 -1 -1 -1 -0 -0 0 -0 1 1 2 3
3 4 4 4 5 4 3 3 3 3 2 2 2 3 3 3 3 3 3 3 2 2 1 1 1 0 1 1 0 0 0 0 0 -0 -0 -1 0 2 1 1 2 3 3
4 4 5 5 5 4 4 3 3 3 2 2 3 3 3 3 2 2 1 1 2 1 2 1 2 2 1 4 3 2 1 1 1 1 0 1 1 2 3 3 3 3 2
4 4 5 4 4 4 3 4 3 2 2 2 2 3 3 4 4 3 4 3 3 2 2 2 2 2 1 5 5 4 2 2 2 3 3 4 3 3 3 4 4 4 4
4 4 4 4 3 3 2 4 3 3 3 2 2 3 2 4 4 4 4 4 4 4 4 4 4 4 3 6 6 4 4 4 4 4 4 3 2 2 2 2 1 1 0
4 4 3 4 3 2 3 3 3 3 3 3 3 3 2 2 4 3 3 4 3 3 3 4 4 4 4 7 7 4 4 4 4 4 4 1 1 6 5 1 1 0 0
3 3 3 3 3 3 2 3 3 3 4 3 3 2 2 3 4 2 2 3 2 2 3 4 4 5 2 8 7 5 4 3 3 1 0 5 3 6 6 -0 -0 1 0
3 3 3 4 4 3 3 3 3 3 3 2 2 3 3 3 2 2 2 2 4 4 3 3 1 1 2 3 7 7 1 2 0 1 1 1 6 6 7 7 0 2 3
3 3 4 4 3 3 3 4 3 2 3 2 3 3 2 2 2 1 2 1 1 1 1 -0 0 -0 -1 6 6 6 6 4 0 1 0 2 7 7 6 5 7 7 6
3 3 3 3 3 3 2 3 3 2 2 3 3 2 1 1 1 0 0 0 0 1 1 1 2 0 -0 -1 5 6 5 5 0 0 3 5 6 7 5 7 7 7 -1
3 3 3 4 3 3 2 2 2 2 2 2 2 1 1 0 -0 0 0 2 3 2 2 1 1 1 1 2 2 -0 -0 4 1 3 0 2 4 5 3 2 2 1 1
3 3 3 3 3 2 2 1 1 1 2 2 1 1 0 -0 0 0 1 2 4 5 3 2 2 3 4 6 9 8 4 3 4 4 1 2 2 2 2 2 2 2 1
4 2 2 2 3 3 1 1 1 1 2 2 1 1 1 1 1 1 2 9 8 9 10 10 8 4 10 10 10 10 10 10 10 2 2 3 3 3 3 3 2 2 2